Presure
115 111 107 113 114 111 111 112 112 111 112 117 114 115 121 122 120 112 110 98 117 117 111 113 112 111 107 104 106 110 110 105 98 103 85 107 101 107 112 115 104 106 106
120 122 122 117 118 119 115 110 116 116 107 109 101 103 113 115 114 116 118 109 109 108 97 121 114 115 116 112 110 106 106 101 103 107 105 86 112 117 102 113 113 121 101
115 117 112 115 123 125 119 117 112 112 114 121 118 116 122 117 117 122 115 119 118 117 115 105 109 108 112 113 123 111 107 112 118 119 116 112 109 117 113 97 101 111 95
127 125 125 118 122 123 123 126 129 128 125 123 125 126 128 129 163 130 136 155 137 129 174 175 187 250 203 245 274 90 143 134 117 111 113 101 100 115 122 115 116 105 122
142 142 142 143 145 149 151 151 152 155 157 221 226 237 231 198 200 225 227 171 218 222 237 234 247 234 231 238 235 268 258 275 272 182 139 140 140 149 156 144 136 136 141
104 151 152 149 164 173 231 237 227 234 226 194 227 224 229 226 223 226 217 215 218 228 233 228 226 242 254 257 257 273 257 253 312 278 274 250 228 226 223 225 143 183 162
247 235 198 251 238 241 238 228 227 229 219 145 223 213 218 198 198 217 222 160 217 222 222 224 229 219 227 248 249 279 284 226 190 189 256 240 232 214 232 230 224 225 220
234 173 229 202 159 159 220 228 217 225 191 199 221 143 181 206 219 216 215 204 213 209 223 216 234 219 217 234 232 259 217 260 246 177 207 224 238 226 104 212 224 216 219
229 169 153 150 149 149 236 157 138 140 137 135 145 216 208 212 206 211 202 212 212 205 216 224 211 204 219 218 256 226 255 251 278 284 246 220 167 156 160 165 158 185 151
145 155 155 155 177 139 224 227 197 191 192 218 211 194 206 191 202 209 208 203 201 205 216 209 214 213 208 247 98 258 282 291 231 278 245 227 225 247 216 165 154 189 123
174 210 196 191 221 204 211 211 201 198 209 195 182 205 183 210 215 216 210 205 210 204 209 201 197 199 74 236 233 234 279 239 253 230 259 231 220 199 218 209 213 209 204
179 192 180 201 189 196 195 183 191 203 211 205 189 195 184 200 208 204 204 218 216 215 206 206 196 191 192 202 232 233 236 239 282 277 252 236 231 216 205 204 208 204 203
187 196 186 190 195 189 189 186 198 188 197 186 183 190 191 186 199 195 191 193 208 207 193 214 200 184 201 207 235 224 105 295 83 261 256 159 76 221 82 206 203 183 200
178 181 185 200 182 189 190 192 185 191 195 187 182 199 190 195 200 196 192 194 189 182 179 201 115 211 199 206 216 88 168 295 263 223 252 239 221 217 137 207 219 198 174
186 184 183 185 180 184 188 193 193 197 190 193 195 191 191 186 194 188 190 185 185 179 177 160 200 201 160 200 223 203 254 272 262 254 256 153 153 206 203 217 220 204 201
205 212 202 191 197 195 192 197 199 179 197 195 201 198 202 184 190 193 177 189 179 183 191 199 202 192 167 194 205 215 211 249 265 252 251 249 248 235 231 231 207 205 203
202 202 202 212 204 198 200 198 150 201 68 129 209 186 205 198 200 189 188 158 139 198 173 201 111 169 199 195 97 221 141 200 258 249 233 240 232 226 231 226 228 200 203
193 196 195 198 192 189 187 184 182 183 188 194 196 190 195 178 186 200 174 183 183 203 86 203 192 195 163 193 196 225 217 214 215 242 239 222 235 235 233 229 231 227 222
206 194 193 167 177 181 184 186 184 186 190 193 199 193 200 159 206 204 181 186 195 195 177 162 221 210 191 194 191 186 218 216 207 210 237 233 216 220 226 214 214 210 206
218 214 209 191 194 188 186 191 193 190 187 194 198 107 212 213 215 206 157 182 178 197 81 202 174 197 186 196 194 190 217 176 211 197 186 228 216 220 205 199 192 195 205
205 201 222 217 218 233 231 204 202 210 204 204 212 228 227 231 216 206 208 209 204 190 171 202 170 92 198 144 218 173 193 193 194 201 191 189 218 217 214 196 186 192 204
242 241 240 239 231 233 234 224 235 245 240 232 243 242 201 200 217 219 199 194 197 211 201 190 185 162 177 168 200 204 194 203 199 209 210 203 228 219 210 203 193 203 210
227 212 234 215 235 241 245 206 240 215 212 215 207 187 199 191 202 210 193 205 193 188 193 196 195 161 170 170 180 196 205 181 207 204 206 206 228 220 214 206 203 191 211
211 219 226 229 171 116 240 254 256 211 209 200 187 183 225 194 190 177 206 193 194 195 200 184 183 202 168 179 172 174 204 178 155 190 199 231 210 226 207 210 203 193 210
209 212 226 225 162 238 245 264 259 295 245 193 256 267 187 185 193 193 204 172 194 192 186 192 195 186 204 170 171 166 180 165 201 187 197 190 213 222 217 197 215 194 220
239 239 248 306 130 289 284 283 294 296 315 218 247 206 201 253 198 186 197 170 168 183 188 187 191 194 186 189 175 174 176 186 201 191 205 212 212 206 219 204 201 203 216
Wind_Speed
47 48 48 50 52 52 51 50 52 53 52 52 53 55 57 58 58 57 54 44 58 57 52 51 52 52 49 43 46 50 52 51 45 52 28 50 28 52 59 59 42 44 50
51 53 55 54 56 56 55 54 56 58 53 54 47 49 59 58 57 59 61 57 56 52 40 60 54 57 58 55 52 49 50 47 53 58 50 28 63 68 48 61 61 63 49
54 56 55 57 60 61 59 58 56 55 58 62 60 59 64 62 62 64 61 64 62 63 60 47 52 50 55 56 61 53 52 58 65 66 68 62 58 69 64 40 40 60 33
60 61 61 59 60 62 62 63 65 63 63 63 64 67 69 70 61 68 71 61 66 67 57 59 53 38 53 42 36 30 68 67 65 56 65 50 47 62 69 66 67 46 70
67 68 69 70 69 70 70 70 70 70 71 50 53 40 41 48 46 43 40 58 42 42 34 38 35 39 41 42 43 37 38 32 36 61 75 76 75 83 84 82 76 77 79
39 72 73 72 75 75 53 46 52 45 49 60 47 44 37 38 39 38 42 45 43 35 33 37 38 35 36 36 38 37 36 35 23 38 42 56 65 70 74 77 74 88 88
45 50 45 39 47 45 44 48 50 44 51 46 46 43 41 49 49 41 35 66 42 37 37 36 35 44 35 37 39 37 28 50 56 56 45 50 59 62 65 69 72 72 74
49 43 48 54 67 67 52 46 52 48 58 53 43 66 55 48 39 41 39 46 42 44 37 40 35 38 38 36 36 35 30 27 35 61 37 52 60 64 33 74 69 70 68
45 65 70 70 69 69 41 66 65 66 63 64 65 42 45 45 46 43 46 40 41 43 39 37 43 44 36 34 39 33 30 26 26 29 44 49 61 70 72 71 67 69 42
73 72 71 73 57 68 46 48 56 53 51 45 46 48 46 55 46 46 44 44 44 40 39 39 41 42 38 44 32 36 27 21 33 27 46 45 46 53 60 66 68 67 38
70 49 56 54 42 48 44 44 50 51 45 47 53 46 52 46 46 46 46 44 43 40 38 39 45 47 24 43 37 36 24 27 26 33 42 51 52 56 57 57 62 57 56
63 61 63 51 56 52 53 55 52 48 47 49 52 50 53 47 46 47 46 43 42 40 38 41 44 48 42 39 40 36 29 25 24 23 38 49 58 56 60 59 57 57 56
65 62 62 62 58 58 59 58 54 56 52 56 58 56 54 53 52 50 49 45 43 39 40 41 39 43 43 41 45 35 38 20 31 28 29 50 23 57 30 63 62 56 49
69 67 67 62 64 62 62 62 62 60 57 58 58 54 55 55 54 55 54 51 45 41 47 41 28 44 44 43 43 34 27 19 25 27 32 45 49 54 39 55 56 55 49
69 71 70 68 67 68 68 65 65 66 64 62 60 58 58 58 56 55 57 56 50 46 48 39 41 44 34 44 42 33 30 17 20 23 27 28 37 52 55 57 55 53 51
60 62 67 69 70 68 72 73 70 66 65 64 64 63 57 59 61 57 57 56 52 50 52 50 43 45 40 46 41 40 37 23 19 21 23 32 31 43 53 52 52 47 45
63 63 62 63 65 67 69 71 55 71 27 42 65 62 60 59 60 60 59 55 52 53 53 52 34 50 40 45 42 39 34 34 16 17 20 22 26 31 34 41 44 45 48
66 66 66 67 67 67 69 70 73 73 69 69 68 64 62 61 59 57 60 64 62 53 31 53 52 40 49 45 45 36 39 33 26 19 22 21 20 27 29 30 32 35 39
70 67 70 67 68 71 74 76 76 80 77 77 75 66 65 60 65 60 58 61 57 55 50 47 39 38 42 42 45 40 31 30 26 19 23 21 26 24 23 23 23 23 23
76 74 74 74 77 80 78 80 82 82 82 86 82 39 74 74 72 66 60 59 66 52 35 48 36 41 44 44 47 42 37 35 26 28 26 19 26 25 26 29 32 26 23
76 73 78 77 78 75 76 84 82 83 88 87 85 74 67 70 60 61 63 63 57 57 58 51 48 40 41 46 46 38 38 38 32 29 26 25 28 23 25 32 35 29 27
78 82 84 83 75 71 71 72 70 67 70 76 73 67 58 54 55 59 57 56 56 56 53 56 49 58 51 50 50 49 43 47 40 38 35 31 26 27 28 29 32 27 25
84 75 87 76 83 80 79 62 70 71 69 66 69 67 65 60 52 56 55 56 51 53 53 53 52 58 58 59 51 49 47 30 43 42 42 36 27 29 28 30 30 33 23
78 81 88 91 55 28 83 81 74 64 67 68 73 71 65 63 53 70 57 48 49 57 50 54 52 51 58 61 55 45 46 41 38 41 41 31 33 29 31 31 32 32 29
78 77 91 88 52 86 86 85 75 78 60 73 65 65 74 79 70 62 52 71 53 52 55 59 61 52 46 64 59 45 50 39 54 42 49 42 34 27 32 35 27 33 32
91 81 82 82 45 87 87 85 84 79 77 61 60 66 74 57 64 72 67 76 71 60 59 62 62 56 50 52 64 57 52 57 56 55 48 39 36 32 30 32 33 30 31
Wind_Direction
271 272 273 272 271 271 271 272 272 272 270 268 268 267 266 266 266 270 271 276 272 272 272 272 274 275 279 283 283 279 277 283 290 286 274 292 283 295 298 291 299 295 295
269 268 267 266 266 266 266 266 267 267 269 268 275 276 270 270 270 269 270 275 277 278 268 273 273 274 273 275 276 282 282 284 280 282 289 263 291 287 286 293 295 291 289
262 263 259 260 265 266 264 263 263 265 267 267 268 268 269 269 269 268 272 271 272 273 275 285 279 274 274 275 270 273 276 273 269 270 275 280 287 284 288 291 292 287 280
265 263 263 260 260 262 262 262 263 263 264 267 268 268 268 268 273 269 270 273 273 272 276 274 276 290 280 278 291 281 265 266 268 276 277 276 277 280 279 280 282 290 279
268 267 267 266 267 269 271 271 271 272 272 280 281 289 287 278 281 287 291 277 284 284 298 291 300 284 274 279 270 284 269 271 253 259 266 268 268 269 269 271 275 276 275
268 269 269 269 273 276 269 271 273 276 277 279 284 287 288 288 287 292 290 288 289 298 296 294 288 302 301 297 293 307 280 264 265 235 229 228 239 243 249 249 269 263 267
274 275 273 263 266 263 264 268 271 273 273 277 284 284 286 280 280 288 292 273 293 298 298 297 299 284 293 303 298 316 308 267 265 260 233 232 236 242 241 246 251 252 255
270 272 269 269 273 274 273 268 274 272 274 275 283 269 275 282 291 289 290 285 291 291 303 294 307 293 288 300 295 310 295 276 258 265 245 244 233 243 273 253 249 253 257
265 271 272 272 272 272 266 271 270 269 268 267 270 285 285 287 287 288 285 290 291 290 301 303 291 287 296 293 313 286 296 270 250 235 238 249 262 268 269 267 269 263 272
269 270 270 271 270 270 277 275 272 277 278 281 282 282 287 281 287 288 288 286 287 293 299 296 300 298 292 319 273 318 310 266 258 232 233 246 238 229 246 268 272 260 276
272 278 278 277 269 277 275 278 280 279 280 279 277 284 276 284 285 285 286 288 288 292 297 293 294 295 264 313 310 305 317 284 260 254 225 234 241 250 239 244 252 256 257
274 280 275 277 279 276 277 274 278 279 282 281 277 280 278 284 286 284 286 289 288 292 291 295 292 288 289 301 311 312 291 278 245 229 222 234 232 241 248 250 250 254 259
281 281 281 281 277 278 278 278 275 277 274 279 279 280 281 281 285 282 280 285 290 291 289 300 298 290 301 301 313 312 271 277 281 232 220 276 280 237 281 247 250 255 255
277 277 280 275 277 278 279 279 280 280 277 278 279 275 281 281 283 283 284 285 285 285 286 296 256 298 299 307 307 269 291 273 250 239 226 228 240 247 263 248 246 251 259
272 276 277 277 280 283 281 279 279 279 281 278 275 278 280 283 282 284 286 286 286 281 281 280 297 297 284 301 308 297 318 282 252 238 230 253 263 250 253 251 252 249 251
266 266 266 271 271 272 277 278 276 274 273 276 275 276 272 275 280 282 276 285 284 283 290 292 294 294 284 294 300 306 308 314 246 252 239 233 228 238 243 250 256 257 255
270 269 268 267 268 271 272 274 274 276 275 279 273 275 274 272 275 280 283 280 277 289 280 289 250 283 287 289 268 302 295 299 276 248 260 254 251 250 248 251 255 260 266
270 269 270 269 269 270 271 270 271 273 274 274 274 273 270 270 273 278 278 282 283 288 235 288 287 284 282 285 289 294 301 301 300 274 266 266 251 243 247 249 254 255 259
263 265 265 268 269 269 270 271 271 274 274 274 272 271 275 272 278 278 275 275 281 283 280 279 281 280 278 281 285 283 289 289 297 301 278 259 266 250 238 245 246 251 254
268 264 260 263 261 264 266 266 267 270 274 272 272 264 275 276 274 275 273 275 274 277 247 281 279 276 276 282 280 284 289 284 289 277 277 268 263 257 257 253 255 256 263
267 266 265 260 257 261 260 261 262 263 264 268 269 268 268 270 268 269 272 272 273 271 275 276 278 285 282 271 280 276 276 291 289 285 275 278 269 257 250 253 256 258 262
273 273 275 275 269 266 264 260 259 254 257 257 261 260 261 264 263 262 262 262 266 271 269 271 270 273 276 276 281 287 289 293 297 297 296 296 266 255 250 249 252 255 258
277 278 276 275 276 275 274 270 261 256 257 258 260 265 263 264 255 252 251 260 259 258 263 266 270 269 274 276 279 288 290 268 293 292 295 297 279 253 249 247 249 254 252
276 277 277 277 273 266 276 274 271 254 256 257 262 264 256 255 249 264 253 250 251 262 256 255 264 263 269 272 276 279 282 277 267 291 292 269 281 255 255 243 246 251 244
275 275 274 277 265 277 277 273 273 268 262 256 258 255 255 257 248 243 231 265 239 246 254 258 261 256 257 267 274 277 282 275 282 289 290 292 281 270 246 251 241 248 237
274 274 271 264 270 259 262 265 266 270 269 246 253 244 252 253 264 247 233 268 273 245 248 251 255 256 255 255 267 272 278 282 278 282 284 282 276 273 252 249 246 248 240